Regional Weather Roundup
Issued by NWS

Current Version | Previous Version | Text Only | Print | Product List | Glossary On
Versions: 1 2 3 4 5 6 7 8 9 10 11 12 13 14 15 16 17 18 19 20 21 22 23 24 25 26 27 28 29 30 31 32 33 34 35 36 37 38 39 40 41 42 43 44 45 46 47 48 49 50
000
ASUS42 KTBW 250810
RWRFL
FLORIDA REGIONAL WEATHER ROUNDUP
NATIONAL WEATHER SERVICE TAMPA BAY RUSKIN FL
400 AM EDT FRI JUL 25 2014

NOTE: "FAIR" INDICATES FEW OR NO CLOUDS BELOW 12,000 FEET WITH NO
SIGNIFICANT WEATHER AND/OR OBSTRUCTIONS TO VISIBILITY.


FLZ001>010-012>015-112-114-115-250900-
PANHANDLE FLORIDA

CITY           SKY/WX    TMP DP  RH WIND       PRES   REMARKS
PENSACOLA      MOCLDY    76  74  93 CALM      29.98F
PENSACOLA NAS  LGT RAIN  76  73  91 W7        29.99R
MILTON NAS     CLEAR     73  70  90 S3        29.98F
CRESTVIEW      CLEAR     73  72  96 CALM      30.00F
DUKE FIELD     FAIR      74  74 100 SW3       29.99F
VALPARAISO     PTCLDY    79  76  90 CALM      29.99F
MARY ESTHER    CLEAR     81  72  73 W1        29.98S
TRI COUNTY     FAIR      72  71  97 CALM      30.00S
PANAMA CITY    FAIR      76  73  91 CALM      29.99S
TYNDALL AFB    PTCLDY    82  76  82 W6        30.00F
APALACHICOLA   CLEAR     81  75  82 SW8       29.99S

STATION/POSITION SKY/WX   TEMP    WIND        PRES    WAVE   SWELL
                          AIR SEA DIR/SP/G            HT/PER HT/PER
                          (F)     (DEG/KT/KT) (MB)    (FT/S) (FT/S)
30.1N   87.6W              82 83  230/ 17/ 21 1014.9F   2/ 3
29.2N   88.2W              81 84  230/ 12/ 16 1015.3F
28.8N   86.0W              83 85  220/  8/ 10 1015.6F   2/10   2/10
PANAMA CITY BEAC           83 84  250/ 11/ 12 1015.5F
CAPE SAN BLAS    NOT AVBL
TOWER C                    82     250/ 10/ 11 1015.9S
28.5N   84.5W              84 85  250/  8/  8 1016.2S   1/10

$$
FLZ011-016>038-118-127-128-134-139-239-250900-
NORTH FLORIDA

CITY           SKY/WX    TMP DP  RH WIND       PRES   REMARKS
MARIANNA       RAIN      74  74 100 S5        29.98F
TALLAHASSEE    CLEAR     75  72  90 CALM      30.00F
PERRY          CLEAR     73  72  94 CALM      30.01S
CROSS CITY       N/A     76  73  91 CALM      30.00F
GAINESVILLE    PTCLDY    75  73  93 CALM      30.02F
MAYPORT NAS    CLEAR     80  73  79 W5        30.01S
JACKSONVILLE   CLEAR     75  73  93 CALM      30.01R
JAX NAS        PTCLDY    83  73  72 SW9       30.01F
JAX CRAIG      CLEAR     80  74  81 W5        30.01S
JAX CECIL      CLEAR     75  73  94 CALM      30.02R
FERNANDINA BEA FAIR      79  72  78 SW6       30.00R
ST AUGUSTINE   PTCLDY    78  73  84 SW5       30.02F

STATION/POSITION SKY/WX   TEMP    WIND        PRES    WAVE   SWELL
                          AIR SEA DIR/SP/G            HT/PER HT/PER
                          (F)     (DEG/KT/KT) (MB)    (FT/S) (FT/S)
SHELL POINT      NOT AVBL
KEATON BEACH               84     260/ 12/ 14 1016.1S
CEDAR KEY                  83     270/  5/  8 1016.8F
FERNANDINA                 79 86  240/  6/  7 1015.6R
30.7N   81.3W                 85                N/A     2/ 5
MAYPORT                    80 86  260/  7/  8   N/A
31.4N   80.9W              82 84  260/ 16/ 19 1015.2F   3/ 5
ST AUGUSTINE               78     260/  5/  7 1016.8F

$$
FLZ040-043>046-052-053-057-058-063-144-250900-
INTERIOR CENTRAL FLORIDA

CITY           SKY/WX    TMP DP  RH WIND       PRES   REMARKS
OCALA          MOCLDY    75  66  73 CALM      30.04S
LEESBURG       PTCLDY    80  75  84 SW5       30.04F
ORLANDO EXEC   CLEAR     78  74  87 CALM      30.04S
ORLANDO INTL   PTCLDY    76  73  91 S3        30.05S
WINTER HAVEN   CLEAR     76  74  93 SW3       30.06S
LAKELAND         N/A     75  75 100 CALM      30.05S
BARTOW         FAIR      73 N/A N/A CALM      30.06S
OKEECHOBEE       N/A     73  73 100 MISG      30.05F

$$
FLZ041-047-054-059-064-141-147-250900-
EAST CENTRAL FLORIDA

CITY           SKY/WX    TMP DP  RH WIND       PRES   REMARKS
DAYTONA BEACH  PTCLDY    76  75  97 S3        30.03S
DELAND         PTSUNNY   77  75  94 CALM      30.04S
JFK SPACE CTR  CLEAR     78  78 100 W5        30.03F
CAPE CANAVERAL CLEAR     77  75  92 S3        30.03S
PATRICK AFB    CLEAR     78  76  93 SW6       30.04S
MELBOURNE      CLEAR     77  75  93 S3        30.04S
VERO BEACH     CLEAR     73  73 100 CALM      30.04F
FT PIERCE      CLEAR     77  73  87 CALM      30.04F
STUART         CLEAR     77  73  88 CALM      30.05F

STATION/POSITION SKY/WX   TEMP    WIND        PRES    WAVE   SWELL
                          AIR SEA DIR/SP/G            HT/PER HT/PER
                          (F)     (DEG/KT/KT) (MB)    (FT/S) (FT/S)
28.5N   80.2W              82 83  190/ 10/ 10 1017.2F
28.9N   78.5W              83 83  200/ 14/ 16 1017.1S   3/ 8   2/ 8
TRIDENT PIER               80 87  200/  6/  8 1016.6F
28.4N   80.5W                 85                N/A     2/ 7
27.6N   80.2W                 84                N/A     1/ 6

$$
FLZ050-056-061-142-242-148-248-149-249-151-251-155-255-
160-260-250900-
WEST CENTRAL FLORIDA

CITY           SKY/WX    TMP DP  RH WIND       PRES   REMARKS
CRYSTAL RIVER  FAIR      75  72  88 CALM      30.02S
INVERNESS      FAIR      75  72  88 CALM      30.03F
BROOKSVILLE    PTCLDY    76  74  93 SE5       30.04S
ZEPHYRHILLS    FAIR      73  73 100 CALM      30.05S
CLEARWATER     CLEAR     78  76  93 SE3       30.03S
TAMPA INTL     MOCLDY    80  73  79 SE5       30.03F
TAMPA EXEC     PTCLDY    77  73  88 CALM      30.04S
PLANT CITY     CLEAR     77 N/A N/A CALM      30.06S
MACDILL AFB    PTCLDY    80  76  90 NE2       30.03S
ST PETERSBURG  CLEAR     85  74  69 CALM      30.01F
SARASOTA       CLEAR     84  73  69 W6        30.02S
VENICE         FAIR      79  75  89 SE5       30.04S

STATION/POSITION SKY/WX   TEMP    WIND        PRES    WAVE   SWELL
                          AIR SEA DIR/SP/G            HT/PER HT/PER
                          (F)     (DEG/KT/KT) (MB)    (FT/S) (FT/S)
CEDAR KEY                  83     270/  5/  8 1016.8F
28.5N   84.5W              84 85  250/  8/  8 1016.2S   1/10
27.3N   84.3W                 87                N/A     2/11
CLEARWATER BEACH           85 89  220/  4/  6 1016.4F
MIDDLE TAMPA BAY           84     270/  5/  7 1017.3R
VENICE                     83 90   CALM  /  3 1016.7R

$$
FLZ066-069-070-075>078-162-262-165-265-250900-
SOUTHWEST FLORIDA AND KEYS

CITY           SKY/WX    TMP DP  RH WIND       PRES   REMARKS
PUNTA GORDA    CLEAR     78  76  93 VRB5      30.06R
FT MYERS       CLEAR     79  76  90 CALM      30.03F
SOUTHWEST INTL CLEAR     77  74  90 CALM      30.04F
NAPLES         MOCLDY    80  76  87 S7        30.04S
MARATHON       PTCLDY    85  77  77 SE5       30.03S HX  95
KEY WEST NAS   PTCLDY    85  75  72 SE8       30.03F
KEY WEST INTL  CLEAR     85  75  72 SE7       30.03F

STATION/POSITION SKY/WX   TEMP    WIND        PRES    WAVE   SWELL
                          AIR SEA DIR/SP/G            HT/PER HT/PER
                          (F)     (DEG/KT/KT) (MB)    (FT/S) (FT/S)
VENICE                     83 90   CALM  /  3 1016.7R
NAPLES                     81 93  170/  7/ 10 1017.9R
DRY TORTUGAS               85     150/  3/  4 1016.9F
SAND KEY                   84     140/  7/  8 1016.8F
SOMBRERO KEY               84     140/ 11/ 12 1017.7F
LONG KEY                   85 88  150/  8/  9 1017.8F
MOLASSES REEF              84 86  120/  8/  9 1017.1S

$$
FLZ067-068-071>074-168-172>174-250900-
SOUTHEAST FLORIDA

CITY           SKY/WX    TMP DP  RH WIND       PRES   REMARKS
W PALM BEACH   PTCLDY    78  73  84 SW3       30.04S
FT LAUDER-EXEC PTCLDY    79  76  90 CALM      30.04S
FT LAUDERDALE  PTCLDY    81  74  79 SE3       30.04S
POMPANO BEACH    N/A     80  75  84 W3        30.04F
PEMBROKE PINES CLEAR     79  75  87 CALM      30.05F
OPA LOCKA      CLEAR     77  74  90 CALM      30.04F
MIAMI          CLEAR     79  74  84 CALM      30.04F
WEST KENDALL   PTCLDY    78  75  90 CALM      30.04F
HOMESTEAD      PTCLDY    78  76  91 CALM      30.04F

STATION/POSITION SKY/WX   TEMP    WIND        PRES    WAVE   SWELL
                          AIR SEA DIR/SP/G            HT/PER HT/PER
                          (F)     (DEG/KT/KT) (MB)    (FT/S) (FT/S)
PORT EVERGLADES            82     230/  2/  3 1017.2
VIRGINIA KEY               84 88  140/  3/  4   N/A
LAKE WORTH                 82 83              1017.0S
FOWEY ROCKS                84 87  130/  5/  6 1017.5F
SETTLEMENT POINT           83     160/  6/  8 1017.9S

$$



USA.gov is the U.S. government's official web portal to all federal, state and local government web resources and services.